Weather Roundup
Issued by NWS Corpus Christi, TX

Current Version | Previous Version | Text Only | Print | Product List | Glossary On
Versions: 1 2 3 4 5 6 7 8 9 10 11 12 13 14 15 16 17 18 19 20 21 22 23 24 25 26 27 28 29 30 31 32 33 34 35 36 37 38 39 40 41 42 43 44 45 46 47 48 49 50
000
ASUS44 KCRP 020110
HRRCRP

SOUTH TEXAS REGIONAL WEATHER ROUNDUP
NATIONAL WEATHER SERVICE CORPUS CHRISTI TX
800 PM CDT SAT AUG 01 2015


TXZ229>244-020200-
...CORPUS CHRISTI AREA OBSERVATIONS...

CITY           SKY/WX    TMP DP  RH WIND       PRES   REMARKS
CORPUS CHRISTI MOCLDY    89  67  47 SE10      29.88R HX  92
NAS CORPUS CHR PTCLDY    84  73  69 SE12      29.88R HX  90
ROCKPORT       PTCLDY    87  71  58 SE10      29.88R HX  93
KINGSVILLE NAS PTCLDY    88  71  57 SE10      29.88R HX  94
ALICE          PTCLDY    90  69  50 SE12      29.87R HX  94
FALFURRIAS     PTCLDY    90  67  47 SE6       29.88R HX  93
$$

...VICTORIA AREA OBSERVATIONS...

CITY           SKY/WX    TMP DP  RH WIND       PRES   REMARKS
VICTORIA       PTCLDY    88  70  55 SE14      29.89R HX  93
BEEVILLE       FAIR      90  68  47 E3        29.88S HX  94
PLEASANTON     CLEAR     94  55  26 NE7       29.89S HX  91
SAN ANTONIO    PTCLDY    93  57  29 E10       29.92R HX  91
$$

...LAREDO AREA OBSERVATIONS...

CITY           SKY/WX    TMP DP  RH WIND       PRES   REMARKS
LAREDO         CLEAR     96  59  29 E14       29.88R HX  95
COTULLA        PTCLDY    97  61  30 E7        29.87S HX  97
DEL RIO        MOCLDY    89  71  55 CALM      29.88F HX  95
MCALLEN        PTCLDY    90  72  55 SE13      29.89R HX  97
HEBBRONVILLE     N/A     92  65  41 E12       29.90R HX  94
$$

...OTHER TEXAS OBSERVATIONS...

CITY           SKY/WX    TMP DP  RH WIND       PRES   REMARKS
BROWNSVILLE    PTCLDY    85  72  65 SE7       29.89R HX  91
HOUSTON        PTCLDY    89  62  40 E8        29.89R
COL. STATION   CLEAR     93  57  29 NE9       29.91R HX  91
AUSTIN         PTCLDY    91  58  32 E7        29.91R HX  90
WACO           PTCLDY    91  57  31 E5        29.92S
FORT WORTH     MOCLDY    93  55  27 E10       29.92S HX  91
WICHITA FALLS  CLOUDY    82  70  66 SE3       29.96F
LUBBOCK        MOCLDY    84  68  58 SE16G22   30.04R
EL PASO        MOSUNNY   93  49  22 S7        29.98F HX  90
$$

...MARINE OBSERVATIONS...

STATION/POSITION TIME  SKY/WX   TEMP    WIND        PRES    VSBY  WAVE   SWELL
                                AIR SEA DIR/SP/G                  HT/PER HT/PER
                 (UTC)          (F)     (DEG/KT/KT) (MB)    (MI)  (FT/S) (FT/S)
PORT ARANSAS     0100            84 83  110/ 11/ 12 1012.9R
BUOY 90 E PORT A 0050            86 87   60/ 14/ 16 1011.7F         2/ 5
BUOY 45 SE BAFFI 0050            85 86   80/  8/ 12 1011.5F         1/ 3
BUOY 200 E PT IS 0050            83 86  230/  8/ 10 1012.4F         1/ 3
BUOY 15 E GALVES 0050            87 87  140/  8/ 10 1011.8R         2/ 5   2/ 5
$$


USA.gov is the U.S. government's official web portal to all federal, state and local government web resources and services.